User: anonymous   Login
Location: Bazinghen
(50.8246°N, 1.6616°E)
Time: 17:14:35
(UTC+00:00)
Language:

COSMOS 2406 - Orbit

View from above orbital plane
View from above orbital plane
View from above satellite
View from above satellite

Ground track
Ground track

The orbit data is extracted from the following two-line orbital elements,

1 28352U 04021A   20196.23930662  .00000022  00000-0  37903-4 0  9996
2 28352  71.0016 299.6122 0014572 211.5257 148.4992 14.11665507829338
Epoch (UTC): 14 July 2020 05:44:36
Eccentricity: 0.0014572
inclination: 71.0016°
perigee height: 843 km
apogee height: 864 km
right ascension of ascending node: 299.6122°
argument of perigee: 211.5257°
revolutions per day: 14.11665507
mean anomaly at epoch: 148.4992°
orbit number at epoch: 82933

The dashed part of the orbit path shows where the satellite is in the earth's shadow,  

DLR